RH
30 34 37 34 26 13 10 13 15 23 26 26 32 55 63 91 96 96 94 96 97 94 92 92 91 90 95
19 29 29 22 11 10 14 14 19 24 28 26 31 40 56 47 83 95 73 62 40 43 92 92 92 93 91
12 14 11 10 12 13 13 20 24 28 29 32 36 39 42 42 45 51 37 40 41 63 88 90 90 92 91
9 9 9 14 15 14 24 25 29 32 29 28 28 28 30 27 29 30 35 40 71 90 90 91 90 92 90
8 8 12 19 20 25 28 29 23 25 26 27 24 20 21 22 21 27 33 43 84 94 93 89 93 92 89
27 36 22 20 21 28 32 23 19 31 39 19 24 21 20 19 24 29 32 36 50 94 98 97 99 99 93
48 13 16 20 23 27 32 35 32 35 48 28 25 23 24 23 26 29 35 55 98 96 97 97 94 95 95
15 19 26 29 27 32 36 32 31 34 47 47 31 32 25 23 27 36 53 54 57 53 52 84 98 95 98
20 33 43 33 32 37 40 39 36 29 44 54 46 47 38 28 32 36 38 43 43 46 53 51 54 93 94
47 54 61 42 36 40 40 46 62 66 53 68 45 54 94 55 43 48 46 41 45 53 56 56 64 74 64
44 53 49 36 39 41 49 56 61 56 54 82 92 90 97 95 80 71 59 52 54 57 56 64 66 66 72
36 34 34 39 47 58 62 48 45 57 57 81 100 94 96 97 90 66 62 59 63 66 68 66 62 56 58
37 40 41 42 54 54 46 50 52 60 77 85 88 88 86 88 88 74 74 63 66 71 70 72 66 62 61
45 45 49 52 54 49 49 56 51 47 61 75 84 87 83 83 79 70 70 81 64 63 72 80 72 68 65
54 54 49 48 48 59 60 63 68 65 50 56 77 78 79 76 70 63 71 69 66 66 72 82 74 63 54
54 51 54 56 61 73 72 76 71 70 68 71 73 78 72 61 63 68 66 70 70 80 83 91 74 57 53
60 58 73 80 82 64 62 70 72 75 68 73 76 89 92 91 75 65 77 73 75 81 87 85 77 54 58
Wind_Speed
22 19 18 17 17 18 18 17 15 11 12 13 13 12 11 11 12 14 15 15 16 18 18 18 19 20 22
17 18 17 17 18 16 15 15 13 13 13 13 13 12 12 15 14 17 19 20 20 19 18 19 20 21 22
14 14 16 16 15 14 14 12 14 15 14 14 13 14 16 18 19 22 23 21 22 19 19 22 23 24 22
11 11 12 13 13 13 13 14 14 13 13 15 15 16 19 20 21 23 22 22 20 21 20 21 24 26 24
8 9 11 13 12 12 13 13 15 17 14 14 18 18 18 20 22 23 22 23 21 22 22 21 25 26 25
9 13 13 12 12 12 13 14 16 14 19 19 19 18 20 20 20 21 22 24 23 20 20 21 24 26 29
15 14 13 12 12 12 12 13 15 16 21 23 21 21 20 21 21 21 20 18 16 20 24 25 26 28 29
14 13 12 10 10 12 13 15 16 17 21 25 23 23 22 19 18 15 13 20 24 25 27 26 27 29 31
13 10 9 9 11 13 15 16 18 19 23 22 23 29 26 21 15 17 23 25 27 26 26 28 31 29 31
10 10 12 13 14 14 15 16 18 21 20 24 23 23 19 17 25 29 30 26 24 26 26 26 24 26 32
12 13 14 14 14 15 17 17 19 22 20 19 20 20 20 28 31 34 33 30 26 25 23 21 25 28 34
12 13 13 13 14 17 18 17 17 19 18 15 19 19 22 26 33 36 36 35 31 26 26 28 30 30 31
12 13 13 13 13 13 15 15 16 15 13 14 16 18 21 26 30 35 36 36 26 32 30 31 34 35 36
11 11 10 10 13 15 16 16 17 16 12 12 14 19 23 23 27 32 29 29 33 33 33 32 34 34 34
9 9 10 11 12 13 15 15 16 17 18 15 15 20 20 24 28 27 30 31 32 35 35 35 36 34 37
10 11 11 12 13 15 16 15 17 17 18 20 22 23 25 24 19 27 29 34 34 33 31 35 41 38 39
12 11 12 15 17 19 15 17 17 18 19 18 19 22 25 28 29 22 30 31 33 34 32 34 40 42 42
Wind_Direction
226 228 236 248 265 281 290 291 295 293 291 292 290 292 303 308 310 311 313 306 303 308 309 311 312 311 309
218 221 234 253 268 278 281 286 288 294 296 298 300 296 288 299 299 301 305 301 305 307 305 307 308 305 306
215 228 242 258 267 276 283 284 291 296 302 299 295 292 287 295 296 294 301 300 302 305 300 301 300 299 300
228 243 253 260 269 274 280 288 290 296 298 292 293 295 298 298 295 295 296 297 299 293 292 293 293 298 299
250 250 254 256 266 275 280 288 297 302 292 295 301 301 302 300 301 299 298 296 299 296 293 290 291 293 293
258 261 253 255 264 270 281 293 305 307 302 306 310 309 310 309 309 306 301 299 302 310 307 298 292 291 290
260 248 248 250 263 272 283 296 301 307 306 307 313 312 312 314 312 308 306 305 307 304 305 301 296 295 292
243 245 251 260 267 280 294 298 302 304 305 310 314 311 314 316 312 305 305 302 301 305 303 301 296 294 295
243 247 253 273 289 291 291 296 302 307 311 315 316 313 315 318 309 305 315 315 313 312 309 306 300 300 293
244 260 273 284 288 292 296 303 309 314 312 307 310 322 323 321 316 315 321 318 315 315 314 314 309 305 302
250 260 272 282 288 293 295 300 304 302 307 305 308 316 310 312 314 316 318 322 319 313 311 311 307 309 309
256 265 270 276 287 294 298 305 308 303 307 306 306 312 311 310 310 315 319 321 323 323 313 313 310 308 308
256 258 268 283 289 292 297 302 300 299 301 300 299 307 311 311 310 316 322 325 327 323 316 312 313 316 316
252 263 276 286 292 298 301 303 298 295 289 299 301 307 309 312 315 315 324 322 327 327 322 317 316 317 316
261 274 284 286 296 304 306 296 297 305 306 313 303 307 307 311 314 322 325 327 328 327 321 317 316 319 321
266 276 282 294 300 299 303 291 300 307 312 312 311 315 314 313 327 325 328 331 329 324 320 318 317 321 323
272 280 287 289 289 294 290 293 298 304 308 307 312 320 319 321 325 333 328 328 327 321 319 320 318 320 324